This is the latest recevied weather packets stored in our database for station/object K5FEP. If no packets are shown the sender has not sent any weather packets the latest 10 day(s).
| Time | Temp. | Humidity | Pressure | Rain* | Wind** | Luminosity | Snow |
|---|---|---|---|---|---|---|---|
| 1777944485 | 17.22° C | 58% | 1012.4 hPa | 0 mm | - | 0 W/m² | - |
| 1777944182 | 17.22° C | 57% | 1012.3 hPa | 0 mm | - | 0 W/m² | - |
| 1777943878 | 17.78° C | 55% | 1012.4 hPa | 0 mm | - | 0 W/m² | - |
| 1777943575 | 17.78° C | 56% | 1012.2 hPa | 0 mm | - | 0 W/m² | - |
| 1777943270 | 17.78° C | 57% | 1012.2 hPa | 0 mm | - | 0 W/m² | - |
| 1777942967 | 17.78° C | 56% | 1012.3 hPa | 0 mm | - | 0 W/m² | - |
| 1777942663 | 17.78° C | 57% | 1012.2 hPa | 0 mm | - | 0 W/m² | - |
| 1777942360 | 18.33° C | 55% | 1012.1 hPa | 0 mm | - | 0 W/m² | - |
| 1777942057 | 18.33° C | 55% | 1011.9 hPa | 0 mm | - | 0 W/m² | - |
| 1777941753 | 18.33° C | 54% | 1012.1 hPa | 0 mm | - | 0 W/m² | - |
| 1777941451 | 18.89° C | 52% | 1012.1 hPa | 0 mm | - | 0 W/m² | - |
| 1777941149 | 18.89° C | 53% | 1012 hPa | 0 mm | - | 0 W/m² | - |
| 1777940845 | 18.89° C | 48% | 1011.9 hPa | 0 mm | - | 0 W/m² | - |
| 1777940542 | 19.44° C | 50% | 1012 hPa | 0 mm | - | 0 W/m² | - |
| 1777940240 | 20° C | 50% | 1011.9 hPa | 0 mm | - | 1 W/m² | - |
| 1777939937 | 20° C | 49% | 1011.9 hPa | 0 mm | - | 2 W/m² | - |
| 1777939634 | 20.56° C | 47% | 1011.9 hPa | 0 mm | - | 3 W/m² | - |
| 1777939332 | 21.11° C | 46% | 1011.8 hPa | 0 mm | - | 5 W/m² | - |
| 1777939028 | 21.11° C | 45% | 1011.8 hPa | 0 mm | - | 8 W/m² | - |
| 1777938724 | 21.67° C | 44% | 1011.8 hPa | 0 mm | - | 11 W/m² | - |
| 1777938422 | 21.67° C | 43% | 1011.7 hPa | 0 mm | - | 15 W/m² | - |
| 1777938119 | 22.22° C | 43% | 1011.7 hPa | 0 mm | - | 19 W/m² | - |
| 1777937815 | 22.78° C | 41% | 1011.5 hPa | 0 mm | - | 27 W/m² | - |
| 1777937511 | 23.33° C | 40% | 1011.3 hPa | 0 mm | - | 29 W/m² | - |
| 1777937209 | 23.33° C | 39% | 1011.6 hPa | 0 mm | - | 27 W/m² | - |
* Rain latest hour (hover to see other rain measurements)
** Current wind speed in m/s (hover to see current wind gust speed)